Total_Precipitation_Accumulation
0.00 0.00 0.00 0.00 0.00 0.00 0.00 0.00 0.00 0.00 0.00 0.00 0.00 0.00 0.00 0.00 0.00 0.00 0.00 0.00 0.01 0.02 0.03 0.05 0.07 0.08 0.10 0.10 0.12 0.14 0.17 0.22 0.21 0.09 0.06 0.09 0.10 0.09 0.10 0.12 0.11 0.11 0.10
0.00 0.00 0.00 0.00 0.00 0.00 0.00 0.00 0.00 0.00 0.00 0.00 0.00 0.00 0.00 0.00 0.00 0.00 0.00 0.00 0.00 0.00 0.01 0.03 0.05 0.07 0.08 0.09 0.11 0.12 0.14 0.17 0.25 0.21 0.11 0.12 0.12 0.14 0.17 0.18 0.16 0.15 0.13
0.00 0.00 0.00 0.00 0.00 0.00 0.00 0.00 0.00 0.00 0.00 0.00 0.00 0.00 0.00 0.00 0.00 0.00 0.00 0.00 0.00 0.00 0.00 0.01 0.03 0.05 0.06 0.06 0.07 0.10 0.13 0.18 0.26 0.29 0.20 0.16 0.15 0.15 0.18 0.19 0.18 0.16 0.15
0.00 0.00 0.00 0.00 0.00 0.00 0.00 0.00 0.00 0.00 0.00 0.00 0.00 0.00 0.00 0.00 0.00 0.00 0.00 0.00 0.00 0.00 0.00 0.01 0.01 0.02 0.02 0.03 0.06 0.10 0.16 0.21 0.24 0.30 0.30 0.23 0.21 0.19 0.21 0.18 0.16 0.15 0.16
0.00 0.00 0.00 0.00 0.00 0.00 0.00 0.00 0.00 0.00 0.00 0.00 0.00 0.00 0.00 0.00 0.00 0.00 0.00 0.00 0.00 0.00 0.00 0.00 0.00 0.01 0.01 0.04 0.09 0.14 0.21 0.29 0.38 0.44 0.42 0.36 0.31 0.25 0.21 0.22 0.27 0.27 0.26
0.00 0.00 0.00 0.00 0.00 0.00 0.00 0.00 0.00 0.00 0.00 0.00 0.00 0.00 0.00 0.00 0.00 0.00 0.00 0.00 0.00 0.00 0.00 0.00 0.00 0.00 0.01 0.05 0.09 0.19 0.33 0.47 0.56 0.59 0.56 0.48 0.37 0.32 0.32 0.37 0.45 0.52 0.46
0.00 0.00 0.00 0.00 0.00 0.00 0.00 0.00 0.00 0.00 0.00 0.00 0.00 0.00 0.00 0.00 0.00 0.00 0.00 0.00 0.00 0.00 0.00 0.00 0.01 0.01 0.02 0.03 0.07 0.18 0.29 0.39 0.46 0.49 0.48 0.38 0.35 0.34 0.46 0.59 0.61 0.65 0.54
0.00 0.00 0.00 0.00 0.00 0.00 0.00 0.00 0.00 0.00 0.00 0.00 0.00 0.00 0.00 0.00 0.00 0.00 0.00 0.00 0.00 0.00 0.00 0.01 0.01 0.01 0.02 0.07 0.15 0.23 0.19 0.17 0.21 0.27 0.31 0.33 0.36 0.43 0.57 0.76 0.82 0.84 0.69
0.00 0.00 0.00 0.00 0.00 0.00 0.00 0.00 0.00 0.00 0.00 0.00 0.00 0.00 0.00 0.00 0.00 0.00 0.01 0.00 0.00 0.00 0.00 0.01 0.03 0.03 0.05 0.17 0.29 0.32 0.21 0.13 0.15 0.23 0.32 0.35 0.36 0.38 0.46 0.73 0.91 0.95 0.80
0.00 0.00 0.00 0.00 0.00 0.00 0.00 0.00 0.00 0.00 0.00 0.00 0.00 0.00 0.00 0.00 0.00 0.00 0.01 0.02 0.02 0.02 0.02 0.02 0.03 0.06 0.12 0.24 0.29 0.31 0.25 0.17 0.21 0.24 0.26 0.27 0.26 0.30 0.39 0.58 0.99 1.29 1.07
0.00 0.00 0.00 0.00 0.00 0.00 0.00 0.00 0.00 0.00 0.00 0.00 0.00 0.00 0.00 0.00 0.00 0.00 0.02 0.04 0.06 0.08 0.06 0.03 0.03 0.10 0.19 0.23 0.21 0.19 0.25 0.32 0.28 0.26 0.28 0.30 0.31 0.33 0.37 0.48 0.78 1.33 1.49
0.00 0.00 0.00 0.00 0.00 0.00 0.00 0.00 0.00 0.00 0.00 0.00 0.00 0.00 0.00 0.00 0.00 0.00 0.02 0.05 0.10 0.10 0.07 0.04 0.06 0.13 0.15 0.12 0.10 0.16 0.28 0.29 0.23 0.31 0.37 0.38 0.38 0.41 0.46 0.54 0.62 0.79 1.03
0.00 0.00 0.00 0.00 0.00 0.00 0.00 0.00 0.00 0.00 0.00 0.00 0.00 0.00 0.00 0.00 0.00 0.00 0.02 0.07 0.10 0.09 0.07 0.10 0.11 0.09 0.07 0.06 0.09 0.15 0.16 0.15 0.26 0.46 0.53 0.53 0.55 0.61 0.65 0.67 0.64 0.64 0.67
0.00 0.00 0.00 0.00 0.00 0.00 0.00 0.00 0.00 0.00 0.00 0.00 0.00 0.00 0.00 0.00 0.00 0.01 0.04 0.06 0.07 0.08 0.09 0.08 0.06 0.04 0.04 0.06 0.10 0.10 0.09 0.16 0.38 0.56 0.61 0.59 0.61 0.67 0.73 0.80 0.86 0.81 0.78
0.00 0.00 0.00 0.00 0.00 0.00 0.00 0.00 0.00 0.00 0.00 0.00 0.00 0.01 0.01 0.02 0.02 0.08 0.10 0.09 0.11 0.12 0.11 0.04 0.02 0.03 0.04 0.06 0.09 0.10 0.11 0.19 0.31 0.41 0.53 0.59 0.59 0.65 0.74 0.84 0.91 0.88 0.79
0.00 0.00 0.00 0.00 0.00 0.00 0.00 0.00 0.00 0.00 0.00 0.00 0.00 0.01 0.02 0.03 0.06 0.08 0.09 0.11 0.12 0.11 0.08 0.04 0.05 0.07 0.10 0.13 0.15 0.15 0.16 0.23 0.36 0.50 0.59 0.67 0.75 0.82 0.89 0.90 0.88 0.81 0.68
0.00 0.00 0.00 0.00 0.00 0.00 0.00 0.00 0.00 0.00 0.00 0.00 0.00 0.01 0.02 0.03 0.05 0.06 0.09 0.10 0.06 0.07 0.08 0.09 0.13 0.16 0.19 0.20 0.23 0.26 0.30 0.35 0.52 0.68 0.77 0.83 0.91 0.95 0.95 0.88 0.75 0.60 0.45
0.00 0.00 0.00 0.00 0.00 0.00 0.00 0.00 0.00 0.00 0.00 0.00 0.00 0.00 0.01 0.02 0.03 0.05 0.08 0.05 0.02 0.05 0.12 0.18 0.23 0.26 0.26 0.27 0.31 0.39 0.47 0.52 0.63 0.76 0.84 0.92 1.02 1.05 0.92 0.74 0.56 0.41 0.28
0.00 0.00 0.00 0.00 0.00 0.00 0.00 0.00 0.00 0.00 0.01 0.00 0.00 0.00 0.00 0.01 0.02 0.03 0.03 0.02 0.04 0.07 0.13 0.20 0.24 0.27 0.28 0.31 0.37 0.46 0.60 0.72 0.80 0.90 0.95 1.03 1.06 0.95 0.72 0.49 0.30 0.16 0.12
0.00 0.00 0.00 0.00 0.00 0.00 0.00 0.00 0.00 0.01 0.02 0.02 0.01 0.01 0.01 0.03 0.04 0.02 0.01 0.02 0.04 0.06 0.09 0.15 0.19 0.23 0.28 0.36 0.44 0.56 0.72 0.81 0.89 0.96 1.02 1.03 0.89 0.69 0.49 0.27 0.16 0.12 0.10
0.00 0.00 0.00 0.00 0.00 0.00 0.00 0.01 0.01 0.03 0.03 0.02 0.01 0.01 0.05 0.06 0.04 0.02 0.02 0.03 0.04 0.06 0.08 0.13 0.17 0.23 0.31 0.42 0.54 0.62 0.73 0.84 0.95 1.02 0.98 0.84 0.63 0.41 0.23 0.16 0.13 0.12 0.11
0.00 0.00 0.00 0.00 0.00 0.01 0.01 0.02 0.02 0.03 0.03 0.03 0.02 0.01 0.03 0.02 0.02 0.03 0.03 0.03 0.02 0.03 0.05 0.10 0.14 0.20 0.39 0.63 0.81 0.87 0.83 0.82 0.86 0.88 0.77 0.57 0.38 0.23 0.15 0.13 0.12 0.11 0.09
0.00 0.00 0.00 0.00 0.01 0.01 0.02 0.01 0.02 0.03 0.03 0.03 0.02 0.02 0.02 0.02 0.03 0.03 0.03 0.02 0.02 0.02 0.03 0.06 0.12 0.18 0.33 0.62 0.88 1.11 1.17 1.05 0.93 0.84 0.71 0.50 0.28 0.20 0.18 0.17 0.14 0.11 0.07
0.00 0.00 0.01 0.01 0.02 0.02 0.02 0.02 0.02 0.02 0.03 0.03 0.03 0.03 0.03 0.03 0.03 0.02 0.02 0.02 0.02 0.02 0.02 0.06 0.13 0.21 0.35 0.62 0.86 1.01 1.11 1.14 1.07 0.90 0.71 0.51 0.31 0.21 0.17 0.14 0.11 0.09 0.06
0.01 0.01 0.01 0.02 0.02 0.02 0.02 0.02 0.02 0.02 0.03 0.03 0.04 0.04 0.03 0.03 0.02 0.02 0.02 0.02 0.03 0.02 0.02 0.05 0.14 0.26 0.43 0.63 0.83 0.97 1.01 0.96 0.77 0.55 0.36 0.24 0.19 0.15 0.14 0.12 0.09 0.07 0.05
0.01 0.01 0.01 0.01 0.01 0.01 0.02 0.02 0.03 0.03 0.03 0.04 0.04 0.04 0.04 0.03 0.03 0.03 0.02 0.03 0.03 0.03 0.03 0.05 0.11 0.27 0.45 0.63 0.77 0.93 0.93 0.73 0.44 0.24 0.13 0.11 0.10 0.10 0.09 0.08 0.06 0.05 0.04